{"data":{"norad_id":68718,"epoch":"2026-05-25T04:00:03.998880Z","epoch_age_seconds":64214,"freshness":"FRESH","line1":"1 68718U 26081V   26145.16671295 -.01823754  00000+0 -47045-1 0  9994","line2":"2 68718  53.1610  38.8399 0001048 101.2394 201.0892 15.41832449  5953","mean_motion":15.41832449,"eccentricity":0.0001048,"inclination_deg":53.161,"raan_deg":38.8399,"arg_perigee_deg":101.2394,"mean_anomaly_deg":201.0892,"bstar":-0.047045,"rev_number":595,"period_min":93.395362183093,"perigee_km":439.98660997215,"apogee_km":441.41583846395,"semimajor_km":6818.838224218,"source":"CELESTRAK","updated_at":"2026-05-25T13:38:22.001838Z"}}